Regional Weather Roundup
Issued by NWS

Home | Current Version | Previous Version | Text Only | Print | Product List | Glossary Off
Versions: 1 2 3 4 5 6 7 8 9 10 11 12 13 14 15 16 17 18 19 20 21 22 23 24 25 26 27 28 29 30 31 32 33 34 35 36 37 38 39 40 41 42 43 44 45 46 47 48 49 50

000
ASUS45 KSLC 220210
RWRUT

UTAH REGIONAL WEATHER ROUNDUP
NATIONAL WEATHER SERVICE SALT LAKE CITY UT
700 PM MST FRI NOV 21 2014

UTZ001>011-023>025-220300-

NORTHERN UTAH

CITY           SKY/WX    TMP DP  RH WIND       PRES   REMARKS
BRIGHAM CITY   CLEAR     35  25  67 CALM      30.00S
HILL AFB       CLEAR     36  23  59 CALM      29.99S
LOGAN          CLEAR     32  25  75 CALM      29.98S
OGDEN          CLEAR     36  26  67 CALM      29.98F
PROVO AIRPORT  PTCLDY    34  18  51 CALM      30.01R
SALT LAKE CITY PTCLDY    37  30  75 CALM      30.00S
VERNAL         CLEAR     30  14  51 W7        30.03S WCI  23
WENDOVER       CLEAR     32  19  59 W3        30.00S
HEBER CITY     CLEAR     32  19  59 E5        30.00S WCI  27
WEST JORDAN    CLEAR     37  27  65 SW7       30.00F WCI  32

$$

UTZ012>022-026-027-220300-

SOUTHERN/CENTRAL UTAH

CITY           SKY/WX    TMP DP  RH WIND       PRES   REMARKS
BLANDING       CLEAR     34  20  55 N8        30.12S WCI  27
BRYCE CANYON   CLEAR     24  16  71 SW5       30.09R WCI  18
CEDAR CITY     CLEAR     40  26  57 SE9       30.03R WCI  34
DELTA          CLEAR     40  19  43 E3        30.01S
MILFORD        CLEAR     39  25  57 SW3       30.01R
MOAB/CYNLANDS  CLEAR     32  12  43 CALM      30.04R
PRICE          CLEAR     33  13  43 NE12      30.05S WCI  24
ST GEORGE      CLEAR     54  21  28 S6        30.00R
KANAB          CLEAR     41  18  38 N5        30.07R

$$

REGIONAL REPORTS     COLORADO/ARIZONA

CITY           SKY/WX    TMP DP  RH WIND       PRES   REMARKS
CRAIG, CO      CLEAR     27  19  72 CALM      30.04R
GRAND JUNCTION CLEAR     32  18  56 NE3       30.03R
RIFLE          CLEAR     33  22  63 SE6       30.05R WCI  28
MONTROSE       CLEAR     31  18  58 SE8       30.07R WCI  23
CORTEZ         CLEAR     31  21  66 NE9       30.07R WCI  23
PAGE, AZ       NOT AVBL
GRAND CANYON   CLEAR     26  11  52 NE3       30.08R
KINGMAN        CLEAR     48  17  29 E8        30.00R
FLAGSTAFF      PTCLDY    32  15  49 CALM      30.07R

$$

REGIONAL REPORTS    NEVADA/IDAHO/WYOMING

CITY           SKY/WX    TMP DP  RH WIND       PRES   REMARKS
LAS VEGAS, NV  CLEAR     64  28  25 S7        29.94R
ELY            CLEAR     34  18  52 S12       30.03R WCI  25
ELKO           CLOUDY    38  29  70 SW3       29.98S
POCATELLO, ID  CLEAR     28  26  92 S6        29.94F WCI  22
BURLEY         PTCLDY    32  29  88 CALM      29.91F
EVANSTON, WY   CLEAR     33  19  56 SW5       30.00S WCI  29
ROCK SPRINGS   CLEAR     33  18  53 SW8       29.99F WCI  26
KEMMERER       CLEAR     32  23  69 W10       29.99F WCI  24

$$



USA.gov is the U.S. government's official web portal to all federal, state and local government web resources and services.